| time (UTC) | temp F | wind direction | speed knots | gust knots | rain 1hr in | rain 24hr in | rain mn in | humidity % | barometer mb |
| 20260507192018 | 52 | 0 | 11.3 | 19.1 | 0.61 | 0.73 | 0.73 | 75 | 1012.5 |
| 20260507191018 | 52 | 338 | 8.7 | 16.5 | 0.58 | 0.66 | 0.66 | 75 | 1011.9 |
| 20260507190018 | 52 | 0 | 7.8 | 16.5 | 0.50 | 0.54 | 0.54 | 75 | 1011.8 |
| 20260507185018 | 52 | 0 | 10.4 | 17.4 | 0.46 | 0.46 | 0.46 | 76 | 1011.5 |
| 20260507184018 | 51 | 0 | 12.2 | 19.1 | 0.40 | 0.40 | 0.40 | 78 | 1011.3 |
| 20260507183018 | 51 | 0 | 10.4 | 16.5 | 0.18 | 0.18 | 0.18 | 81 | 1011.2 |
| 20260507182018 | 51 | 23 | 12.2 | 18.2 | 0.12 | 0.12 | 0.12 | 81 | 1011.1 |
| 20260507181018 | 52 | 45 | 11.3 | 22.6 | 0.08 | 0.08 | 0.08 | 81 | 1010.9 |
| 20260507180018 | 53 | 68 | 12.2 | 20.9 | 0.03 | 0.03 | 0.03 | 77 | 1010.5 |
| 20260507175018 | 56 | 68 | 7.8 | 20.0 | 0.00 | 0.00 | 0.00 | 71 | 1010.3 |
| 20260507174018 | 58 | 270 | 2.6 | 5.2 | 0.00 | 0.00 | 0.00 | 74 | 1010.1 |
| 20260507173058 | 59 | 225 | 4.3 | 9.6 | 0.00 | 0.00 | 0.00 | 72 | 1010.0 |
| 20260507172018 | 60 | 225 | 7.0 | 13.0 | 0.00 | 0.00 | 0.00 | 69 | 1010.0 |
| 20260507171018 | 60 | 248 | 4.3 | 12.2 | 0.00 | 0.00 | 0.00 | 66 | 1009.9 |
| 20260507170018 | 60 | 248 | 5.2 | 10.4 | 0.00 | 0.00 | 0.00 | 65 | 1009.8 |
| 20260507165017 | 61 | 203 | 3.5 | 9.6 | 0.00 | 0.00 | 0.00 | 66 | 1009.8 |
| 20260507164018 | 61 | 203 | 6.1 | 12.2 | 0.00 | 0.00 | 0.00 | 65 | 1009.8 |
| 20260507163017 | 61 | 203 | 6.1 | 11.3 | 0.00 | 0.00 | 0.00 | 65 | 1009.6 |
| 20260507162058 | 61 | 203 | 4.3 | 7.8 | 0.00 | 0.00 | 0.00 | 65 | 1009.7 |
| 20260507161017 | 61 | 203 | 4.3 | 8.7 | 0.00 | 0.00 | 0.00 | 65 | 1009.7 |
| 20260507160017 | 61 | 203 | 7.0 | 12.2 | 0.00 | 0.00 | 0.00 | 65 | 1009.8 |
| 20260507155017 | 61 | 203 | 7.8 | 13.9 | 0.00 | 0.00 | 0.00 | 64 | 1009.6 |
| 20260507154018 | 62 | 203 | 7.8 | 14.8 | 0.00 | 0.00 | 0.00 | 64 | 1009.8 |
| 20260507153018 | 62 | 180 | 9.6 | 15.6 | 0.00 | 0.00 | 0.00 | 62 | 1009.9 |
| 20260507152038 | 64 | 180 | 7.8 | 14.8 | 0.00 | 0.00 | 0.00 | 61 | 1010.0 |
| 20260507151018 | 64 | 158 | 3.5 | 13.0 | 0.00 | 0.00 | 0.00 | 57 | 1009.9 |
| 20260507150017 | 64 | 248 | 3.5 | 8.7 | 0.00 | 0.00 | 0.00 | 51 | 1009.8 |
| 20260507145017 | 65 | 203 | 5.2 | 9.6 | 0.00 | 0.00 | 0.00 | 50 | 1010.1 |
| 20260507144037 | 65 | 180 | 4.3 | 9.6 | 0.00 | 0.00 | 0.00 | 52 | 1010.1 |
| 20260507143017 | 64 | 180 | 3.5 | 6.1 | 0.00 | 0.00 | 0.00 | 52 | 1010.0 |
| 20260507142017 | 64 | 203 | 3.5 | 7.8 | 0.00 | 0.00 | 0.00 | 52 | 1010.2 |
| 20260507141037 | 64 | 180 | 3.5 | 7.8 | 0.00 | 0.00 | 0.00 | 50 | 1010.3 |
| 20260507140017 | 64 | 158 | 2.6 | 7.0 | 0.00 | 0.00 | 0.00 | 53 | 1010.4 |
| 20260507135017 | 63 | 203 | 1.7 | 4.3 | 0.00 | 0.00 | 0.00 | 55 | 1010.5 |
| 20260507134017 | 63 | 225 | 0.9 | 4.3 | 0.00 | 0.00 | 0.00 | 55 | 1010.8 |
| 20260507133017 | 62 | 203 | 2.6 | 6.1 | 0.00 | 0.00 | 0.00 | 56 | 1010.9 |
| 20260507132017 | 62 | 180 | 3.5 | 7.0 | 0.00 | 0.00 | 0.00 | 56 | 1011.0 |
| 20260507131017 | 63 | 158 | 4.3 | 8.7 | 0.00 | 0.00 | 0.00 | 56 | 1011.1 |
| 20260507130017 | 62 | 180 | 4.3 | 7.0 | 0.00 | 0.00 | 0.00 | 58 | 1011.2 |
| 20260507125017 | 63 | 180 | 3.5 | 7.0 | 0.00 | 0.00 | 0.00 | 56 | 1011.4 |
| 20260507124017 | 62 | 180 | 5.2 | 10.4 | 0.00 | 0.00 | 0.00 | 58 | 1011.4 |
| 20260507123017 | 63 | 180 | 4.3 | 7.8 | 0.00 | 0.00 | 0.00 | 57 | 1011.5 |
| 20260507122017 | 63 | 180 | 4.3 | 9.6 | 0.00 | 0.00 | 0.00 | 57 | 1011.6 |
| 20260507121017 | 62 | 203 | 4.3 | 8.7 | 0.00 | 0.00 | 0.00 | 59 | 1011.6 |
| 20260507120017 | 61 | 203 | 6.1 | 11.3 | 0.00 | 0.00 | 0.00 | 59 | 1011.7 |
| 20260507115017 | 62 | 180 | 5.2 | 10.4 | 0.00 | 0.00 | 0.00 | 58 | 1011.8 |
| 20260507114019 | 62 | 180 | 4.3 | 7.8 | 0.00 | 0.00 | 0.00 | 58 | 1012.1 |
| 20260507113019 | 62 | 180 | 4.3 | 9.6 | 0.00 | 0.00 | 0.00 | 59 | 1012.0 |
| 20260507112039 | 61 | 180 | 4.3 | 9.6 | 0.00 | 0.00 | 0.00 | 60 | 1012.1 |
| 20260507111019 | 61 | 135 | 5.2 | 9.6 | 0.00 | 0.00 | 0.00 | 61 | 1012.3 |
| 20260507110039 | 61 | 158 | 4.3 | 9.6 | 0.00 | 0.00 | 0.00 | 62 | 1012.5 |
| 20260507105019 | 60 | 180 | 5.2 | 10.4 | 0.00 | 0.00 | 0.00 | 63 | 1012.5 |
| 20260507104019 | 61 | 158 | 4.3 | 11.3 | 0.00 | 0.00 | 0.00 | 59 | 1012.7 |
| 20260507103039 | 61 | 158 | 2.6 | 6.1 | 0.00 | 0.00 | 0.00 | 63 | 1012.5 |
| 20260507102018 | 59 | 158 | 4.3 | 11.3 | 0.00 | 0.00 | 0.00 | 64 | 1012.6 |
| 20260507101018 | 59 | 135 | 5.2 | 11.3 | 0.00 | 0.00 | 0.00 | 65 | 1012.7 |
| 20260507100019 | 59 | 158 | 5.2 | 10.4 | 0.00 | 0.00 | 0.00 | 65 | 1012.7 |
| 20260507095039 | 60 | 158 | 3.5 | 7.8 | 0.00 | 0.00 | 0.00 | 66 | 1012.8 |
| 20260507094039 | 60 | 135 | 3.5 | 8.7 | 0.00 | 0.00 | 0.00 | 64 | 1013.0 |
| 20260507093019 | 60 | 158 | 2.6 | 7.8 | 0.00 | 0.00 | 0.00 | 64 | 1012.8 |
| 20260507092019 | 59 | 158 | 4.3 | 8.7 | 0.00 | 0.00 | 0.00 | 65 | 1012.7 |
| 20260507091019 | 59 | 158 | 3.5 | 7.8 | 0.00 | 0.00 | 0.00 | 68 | 1012.8 |
| 20260507090018 | 58 | 180 | 4.3 | 9.6 | 0.00 | 0.00 | 0.00 | 69 | 1013.0 |
| 20260507085018 | 57 | 180 | 4.3 | 7.8 | 0.00 | 0.00 | 0.00 | 71 | 1013.0 |
| 20260507084018 | 57 | 158 | 2.6 | 7.0 | 0.00 | 0.00 | 0.00 | 70 | 1013.0 |
| 20260507083038 | 57 | 315 | 2.6 | 7.0 | 0.00 | 0.00 | 0.00 | 70 | 1013.2 |
| 20260507082018 | 57 | 158 | 1.7 | 5.2 | 0.00 | 0.00 | 0.00 | 68 | 1013.3 |
| 20260507081018 | 57 | 158 | 1.7 | 4.3 | 0.00 | 0.00 | 0.00 | 69 | 1013.4 |
| 20260507080018 | 56 | 158 | 2.6 | 6.1 | 0.00 | 0.00 | 0.00 | 70 | 1013.4 |
| 20260507075018 | 56 | 158 | 2.6 | 7.0 | 0.00 | 0.00 | 0.00 | 70 | 1013.4 |
| 20260507074018 | 57 | 113 | 1.7 | 4.3 | 0.00 | 0.00 | 0.00 | 69 | 1013.4 |
| 20260507073018 | 56 | 113 | 0.9 | 3.5 | 0.00 | 0.00 | 0.00 | 69 | 1013.4 |
| 20260507072018 | 55 | 90 | 1.7 | 4.3 | 0.00 | 0.00 | 0.00 | 71 | 1013.3 |
| 20260507071038 | 54 | 90 | 1.7 | 3.5 | 0.00 | 0.00 | 0.00 | 75 | 1013.2 |
| 20260507070018 | 53 | 90 | 1.7 | 5.2 | 0.00 | 0.00 | 0.00 | 77 | 1013.0 |
| 20260507065018 | 51 | 68 | 2.6 | 6.1 | 0.00 | 0.00 | 0.00 | 80 | 1012.8 |
| 20260507064018 | 51 | 45 | 4.3 | 7.0 | 0.00 | 0.00 | 0.00 | 80 | 1013.0 |
| 20260507063018 | 50 | 45 | 3.5 | 6.1 | 0.00 | 0.00 | 0.00 | 81 | 1012.8 |
| 20260507062018 | 49 | 45 | 4.3 | 7.0 | 0.00 | 0.00 | 0.00 | 82 | 1012.9 |
| 20260507061018 | 49 | 68 | 2.6 | 6.1 | 0.00 | 0.00 | 0.00 | 82 | 1012.8 |
| 20260507060018 | 48 | 68 | 4.3 | 8.7 | 0.00 | 0.00 | 0.00 | 84 | 1012.5 |
| 20260507055038 | 48 | 45 | 5.2 | 7.0 | 0.00 | 0.00 | 0.00 | 85 | 1012.5 |
| 20260507054018 | 47 | 45 | 6.1 | 8.7 | 0.00 | 0.00 | 0.00 | 86 | 1012.4 |
| 20260507053018 | 47 | 45 | 6.1 | 7.8 | 0.00 | 0.00 | 0.00 | 85 | 1012.4 |
| 20260507052038 | 47 | 45 | 5.2 | 7.8 | 0.00 | 0.00 | 0.00 | 85 | 1012.4 |
| 20260507051018 | 47 | 45 | 4.3 | 7.0 | 0.00 | 0.00 | 0.00 | 85 | 1012.5 |
| 20260507050018 | 47 | 45 | 4.3 | 6.1 | 0.00 | 0.00 | 0.00 | 86 | 1012.4 |
| 20260507045018 | 47 | 45 | 4.3 | 7.8 | 0.00 | 0.00 | 0.00 | 86 | 1012.5 |
| 20260507044018 | 47 | 45 | 5.2 | 7.0 | 0.00 | 0.00 | 0.00 | 86 | 1012.4 |
| 20260507043018 | 47 | 23 | 5.2 | 7.8 | 0.00 | 0.00 | 0.00 | 84 | 1012.3 |
| 20260507042018 | 47 | 45 | 4.3 | 7.8 | 0.00 | 0.00 | 0.00 | 86 | 1012.4 |
| 20260507041038 | 47 | 45 | 4.3 | 7.0 | 0.00 | 0.00 | 0.00 | 85 | 1012.3 |
| 20260507040038 | 48 | 45 | 5.2 | 7.8 | 0.00 | 0.00 | 0.00 | 84 | 1012.4 |
| 20260507035017 | 48 | 45 | 4.3 | 6.1 | 0.00 | 0.00 | 0.00 | 84 | 1012.3 |
| 20260507034018 | 48 | 45 | 4.3 | 6.1 | 0.00 | 0.00 | 0.00 | 84 | 1012.5 |
| 20260507033017 | 49 | 45 | 2.6 | 4.3 | 0.00 | 0.00 | 0.00 | 80 | 1012.6 |
| 20260507032017 | 49 | 45 | 3.5 | 5.2 | 0.00 | 0.00 | 0.00 | 81 | 1012.5 |
| 20260507031017 | 49 | 68 | 1.7 | 4.3 | 0.00 | 0.00 | 0.00 | 81 | 1012.4 |
| 20260507030017 | 49 | 45 | 1.7 | 4.3 | 0.00 | 0.00 | 0.00 | 81 | 1012.5 |
| 20260507025017 | 49 | 23 | 2.6 | 7.0 | 0.00 | 0.00 | 0.00 | 82 | 1012.5 |
| 20260507024017 | 49 | 45 | 3.5 | 6.1 | 0.00 | 0.00 | 0.00 | 83 | 1012.5 |
| 20260507023017 | 49 | 68 | 3.5 | 6.1 | 0.00 | 0.00 | 0.00 | 84 | 1012.6 |
| 20260507022017 | 49 | 90 | 3.5 | 6.1 | 0.00 | 0.00 | 0.00 | 85 | 1012.7 |
| 20260507021017 | 49 | 68 | 5.2 | 7.0 | 0.00 | 0.00 | 0.00 | 85 | 1012.6 |
| 20260507020057 | 49 | 90 | 5.2 | 9.6 | 0.00 | 0.00 | 0.00 | 84 | 1012.5 |
| 20260507015017 | 50 | 45 | 5.2 | 7.8 | 0.00 | 0.00 | 0.00 | 84 | 1012.4 |
| 20260507014017 | 50 | 68 | 7.0 | 11.3 | 0.00 | 0.00 | 0.00 | 84 | 1012.4 |
| 20260507013057 | 50 | 45 | 5.2 | 8.7 | 0.00 | 0.00 | 0.00 | 83 | 1012.5 |
| 20260507012037 | 50 | 23 | 5.2 | 8.7 | 0.00 | 0.00 | 0.00 | 82 | 1012.6 |
| 20260507011017 | 50 | 45 | 4.3 | 7.8 | 0.00 | 0.00 | 0.00 | 81 | 1012.7 |
| 20260507010017 | 51 | 45 | 3.5 | 6.1 | 0.00 | 0.00 | 0.00 | 82 | 1012.8 |
| 20260507005017 | 51 | 23 | 3.5 | 4.3 | 0.00 | 0.00 | 0.00 | 81 | 1013.2 |
| 20260507004017 | 51 | 45 | 1.7 | 5.2 | 0.00 | 0.00 | 0.00 | 81 | 1013.3 |
| 20260507003037 | 51 | 45 | 3.5 | 5.2 | 0.00 | 0.00 | 0.00 | 81 | 1013.3 |
| 20260507002017 | 51 | 45 | 4.3 | 6.1 | 0.00 | 0.00 | 0.00 | 80 | 1013.3 |
| 20260507001017 | 51 | 45 | 3.5 | 6.1 | 0.00 | 0.00 | 0.00 | 79 | 1013.2 |
| 20260507000017 | 51 | 45 | 2.6 | 4.3 | 0.00 | 0.00 | 0.00 | 79 | 1013.3 |
| 20260506235017 | 51 | 45 | 4.3 | 7.0 | 0.00 | 0.00 | 0.00 | 78 | 1013.3 |
| 20260506234017 | 52 | 45 | 3.5 | 6.1 | 0.00 | 0.00 | 0.00 | 76 | 1013.3 |
| 20260506233017 | 52 | 45 | 3.5 | 6.1 | 0.00 | 0.00 | 0.00 | 76 | 1013.2 |
| 20260506232057 | 52 | 45 | 4.3 | 7.0 | 0.00 | 0.00 | 0.00 | 76 | 1013.2 |
| 20260506231037 | 52 | 23 | 3.5 | 7.0 | 0.00 | 0.00 | 0.00 | 75 | 1013.0 |
| 20260506230017 | 52 | 45 | 3.5 | 5.2 | 0.00 | 0.00 | 0.00 | 75 | 1012.9 |
| 20260506225017 | 52 | 45 | 3.5 | 6.1 | 0.00 | 0.00 | 0.00 | 74 | 1012.9 |
| 20260506224017 | 53 | 68 | 2.6 | 6.1 | 0.00 | 0.00 | 0.00 | 74 | 1012.7 |
| 20260506223017 | 53 | 180 | 1.7 | 2.6 | 0.00 | 0.00 | 0.00 | 79 | 1012.7 |
| 20260506222017 | 53 | 203 | 2.6 | 4.3 | 0.00 | 0.00 | 0.00 | 78 | 1012.7 |
| 20260506221017 | 54 | 180 | 2.6 | 4.3 | 0.00 | 0.00 | 0.00 | 76 | 1012.6 |
| 20260506220017 | 54 | 180 | 1.7 | 3.5 | 0.00 | 0.00 | 0.00 | 75 | 1012.7 |
| 20260506215017 | 54 | 203 | 2.6 | 7.0 | 0.00 | 0.00 | 0.00 | 74 | 1012.7 |
| 20260506214017 | 54 | 248 | 3.5 | 5.2 | 0.00 | 0.00 | 0.00 | 72 | 1012.7 |
| 20260506213017 | 54 | 248 | 4.3 | 6.1 | 0.00 | 0.00 | 0.00 | 72 | 1012.6 |
| 20260506212017 | 54 | 248 | 3.5 | 6.1 | 0.00 | 0.00 | 0.00 | 72 | 1012.6 |
| 20260506211017 | 55 | 248 | 2.6 | 4.3 | 0.00 | 0.00 | 0.00 | 71 | 1012.5 |
| 20260506210019 | 55 | 225 | 2.6 | 4.3 | 0.00 | 0.00 | 0.00 | 70 | 1012.6 |
| 20260506205018 | 55 | 203 | 2.6 | 3.5 | 0.00 | 0.00 | 0.00 | 70 | 1012.4 |
| 20260506204019 | 55 | 203 | 1.7 | 5.2 | 0.00 | 0.00 | 0.00 | 70 | 1012.1 |
| 20260506203018 | 55 | 180 | 3.5 | 6.1 | 0.00 | 0.00 | 0.00 | 70 | 1011.9 |
| 20260506202018 | 55 | 158 | 1.7 | 4.3 | 0.00 | 0.00 | 0.00 | 69 | 1011.7 |
| 20260506201019 | 56 | 158 | 2.6 | 6.1 | 0.00 | 0.00 | 0.00 | 66 | 1011.4 |
| 20260506200018 | 56 | 180 | 1.7 | 3.5 | 0.00 | 0.00 | 0.00 | 65 | 1011.3 |
| 20260506195019 | 57 | 248 | 2.6 | 6.1 | 0.00 | 0.00 | 0.00 | 62 | 1011.1 |
| 20260506194018 | 56 | 248 | 3.5 | 6.1 | 0.00 | 0.00 | 0.00 | 62 | 1010.5 |
| 20260506193018 | 56 | 248 | 3.5 | 7.0 | 0.00 | 0.00 | 0.00 | 63 | 1010.4 |